Weather in Bukhara

Uzbekistan     39˚46′04″N   64˚25′18″E
temp.,
°C
wind,
m/s
gust,
m/s
humid.,
%
clouds,
%
prec.,
mm/h
press.,
hPa
HPBL,
m
1 december, tue
tue123:00+6˚n4542100 0.0 1026111
02:00+4˚n454690 0.0 102589
05:00+4˚nne344390 0.0 1025113
08:00+1˚nnw235331 0.0 102635
11:00+7˚nw223516 0.0 1026310
14:00+11˚w33250 0.0 1025599
17:00+9˚nnw23290 0.0 102588
20:00+5˚n34410 0.0 102666
2 december, wed
wed223:00+4˚n234510 0.0 102632
02:00+4˚n234583 0.0 102633
05:00+3˚n344792 0.0 102758
08:00+2˚n235217 0.0 102831
11:00+9˚nnw233658 0.0 1028267
14:00+12˚nw233333 0.0 1026554
17:00+11˚nnw453817 0.0 1025103
20:00+7˚n45470 0.0 102787
3 december, thu
thu323:00+5˚nnw345021 0.0 102660
02:00+4˚nnw3453100 0.0 102756
05:00+3˚n355695 0.0 102772
08:00+2˚n455698 0.0 102886
11:00+7˚nnw344296 0.0 1028244
14:00+10˚nnw4535100 0.0 1026451
17:00+8˚n5737100 0.0 1026346
20:00+4˚n5743100 0.0 1027228
4 december, fri
fri423:00+3˚nnw5745100 0.0 1028230
02:00n585171 0.0 1028178
05:00−1˚n475648 0.0 1028168
08:00−3˚n45590 0.0 1030107
11:00+2˚nnw44370 0.0 1030387
14:00+6˚nw33250 0.0 1030706
17:00+4˚nnw34270 0.0 1030165
20:00+1˚nne34340 0.0 103172
5 december, sat
sat523:00−1˚nne34380 0.0 103157
02:00−3˚nne34420 0.0 103153
05:00−3˚nne44440 0.0 103065
08:00−4˚n45471 0.0 103073
11:00+2˚n45271 0.0 1029306
14:00+6˚n44160 0.0 1027643
17:00+4˚n57197 0.0 1026195
20:00n583383 0.0 1027152